Weather observations for the past three days for
Monroe Regional Airport
Imperial (Metric)
Date Time (cdt) Wind (mph) Vis. (mi.) Weather Sky Cond. Temperature (ºF) Relative Humidity Wind Chill (°F) Heat Index (°F) Pressure Precipitation (in)
Air Dwpt 6 hour altimeter (in) sea level (mb) 1 hr 3 hr 6 hr
Max. Min.
13 22:53 Calm 10.00 Fair CLR 71.1 66 84% 29.94 0.0
13 21:53 Calm 10.00 Fair CLR 73.9 66 76% 29.93 1013.4
13 20:53 Calm 10.00 Fair CLR 75.9 66.9 74% 77 29.93 0.0
13 19:53 Calm 10.00 Fair CLR 84 66.9 57% 87 29.93 0.0
13 18:53 NE 5 10.00 Fair CLR 89.1 62.1 91.9 87.1 41% 89 29.93 0.0
13 17:53 E 7 10.00 Fair CLR 90 57.9 34% 89 29.93 0.0
13 16:53 N 6 10.00 Fair CLR 91 60.1 35% 91 29.94 0.0
13 15:53 E 5 10.00 Fair CLR 90 61 38% 90 29.95 0.0
13 14:53 NE 8 10.00 Fair CLR 90 62.1 39% 90 29.96 0.0
13 13:53 Calm 10.00 Fair CLR 89.1 62.1 41% 89 29.98 0.0
13 12:53 Vrbl 3 10.00 Fair CLR 88 59 38% 87 29.99 0.0
13 11:53 Vrbl 3 10.00 Fair CLR 86 59 40% 85 30 0.0
13 10:53 Calm 10.00 Fair CLR 82.4 59 45% 82 30 0.0
13 09:53 Calm 10.00 Fair CLR 79 61 54% 80 30 1017.4
13 08:53 Calm 10.00 Fair CLR 77 59 54% 79 30 0.0
13 07:53 Calm 10.00 Fair CLR 72 66 82% 29.98 1016.7
13 06:53 Calm 10.00 Fair CLR 64 64 100% 29.96 1016.0
13 05:53 Calm 10.00 Fair CLR 63 63 100% 29.94 1015.4
12 21:53 E 5 10.00 Fair CLR 70 64 82% 29.95 1015.7
12 20:53 NE 3 10.00 Fair CLR 72 64 76% 29.94 1015.4
12 18:53 E 7 10.00 Fair CLR 84 61 46% 84 29.94 1015.4
12 17:53 E 5 10.00 Fair CLR 86 59 40% 85 29.94 1015.4
12 16:53 Calm 10.00 Fair CLR 86 55 35% 84 29.95 1015.7
12 15:53 NE 6 10.00 Fair CLR 86 55 35% 84 29.95 1015.7
12 14:53 SE 3 10.00 Fair CLR 86 55.4 35% 85 29.97 0.0
12 12:53 E 8 10.00 Fair CLR 84 57 84 70 40% 83 30.01 1015.9
12 11:53 NE 7 10.00 Fair CLR 82.9 59 44% 83 30.02 1016.5
12 10:53 Vrbl 5 10.00 Fair CLR 82.9 60.1 46% 83 30.02 1016.5
12 09:53 Vrbl 5 10.00 Fair CLR 80.1 62.1 54% 81 30.02 1016.4
12 08:53 NE 5 10.00 Fair CLR 78.1 62.1 58% 80 30.02 1016.3
12 06:53 Calm 10.00 Fair CLR 70 64 72 66 82% 30 1015.7
12 05:53 Calm 10.00 Fair CLR 66 63 90% 29.99 1015.3
12 04:53 NE 3 10.00 Fair CLR 68 64 87% 29.98 1014.9
12 03:53 N 5 10.00 Fair CLR 66.9 64 91% 29.96 1014.3
12 02:53 NE 3 10.00 Fair CLR 68 64 87% 29.95 1014.1
12 01:53 Calm 10.00 Fair CLR 69.1 64.9 87% 29.96 1014.2
12 00:53 Calm 10.00 Fair CLR 70 64.9 84.9 70 84% 29.96 1014.5
11 23:53 E 5 10.00 Fair CLR 71.1 64 79% 29.96 1014.3
11 22:53 E 5 10.00 Fair CLR 73 63 71% 29.96 1014.3
11 21:53 E 3 10.00 Fair CLR 75 62.1 64% 77 29.94 1013.7
11 20:53 NE 3 10.00 Fair CLR 77 63 62% 79 29.93 1013.4
11 19:53 NE 7 10.00 Fair CLR 79 62.1 56% 80 29.92 1013.0
11 18:53 NE 12 10.00 Fair CLR 84.9 59 91 84.9 42% 85 29.9 1012.4
11 17:53 NE 10 10.00 Fair CLR 87.1 59 39% 86 29.9 1012.4
11 16:53 NE 10 10.00 Fair CLR 88 59 38% 87 29.91 1012.5
11 15:53 NE 9 10.00 Fair CLR 90 59 35% 89 29.92 1013.0
11 14:53 NE 12 G 20 10.00 Fair CLR 90 61 38% 90 29.93 1013.3
11 13:53 NE 7 10.00 Fair CLR 89.1 60.1 38% 89 29.94 1013.7
11 12:53 E 7 10.00 Fair CLR 88 59 88 73 38% 87 29.96 1014.2
11 11:53 NE 9 10.00 Fair CLR 87.1 60.1 40% 87 29.96 1014.3
11 10:53 E 8 10.00 Fair CLR 84.9 59 42% 85 29.97 1014.6
11 09:53 E 8 10.00 Fair CLR 82 61 49% 83 29.96 1014.3
11 08:53 E 7 10.00 Fair CLR 79 62.1 56% 80 29.95 1014.1
11 07:53 E 7 10.00 Fair CLR 73 61 66% 29.95 1014.0
11 06:53 NE 8 10.00 Mostly Cloudy BKN075 73 61 73 68 66% 29.95 1013.9
11 05:53 NE 7 10.00 Fair CLR 71.1 62.1 73% 29.94 1013.7
11 04:53 NE 6 10.00 Fair CLR 71.1 62.1 73% 29.92 1013.0
11 03:53 NE 7 10.00 Fair CLR 69.1 63 81% 29.9 1012.5
11 02:53 NE 5 10.00 Fair CLR 71.1 64 79% 29.9 1012.4
11 01:53 N 3 10.00 Fair CLR 71.1 66 84% 29.91 1012.5
Date Time (cdt) Wind (mph) Vis. (mi.) Weather Sky Cond. Air Dwpt Max. Min. Relative Humidity Wind Chill (°F) Heat Index (°F) altimeter (in) sea level (mb) 1 hr 3 hr 6 hr
6 hour
Temperature (ºF) Pressure Precipitation (in)